Weather History for Liberia, Costa Rica

Change the Weather History Date:

Tuesday, March 5, 2013

  Actual Average Record
Temperature  
Mean Temperature 82 °F -  
Max Temperature 92 °F 92 °F 100 °F (1998)
Min Temperature 73 °F 75 °F 62 °F (2011)
Cooling Degree Days 18    
Growing Degree Days 32 (Base 50)    
Moisture  
Dew Point 65 °F    
Average Humidity 52    
Maximum Humidity 69    
Minimum Humidity 35    
Precipitation  
Precipitation 0.00 in - - ()
Sea Level Pressure  
Sea Level Pressure 29.85 in    
Wind  
Wind Speed 10 mph ()    
Max Wind Speed 21 mph    
Max Gust Speed 28 mph    
Visibility 7.7 miles    
Events      
Averages and records for this station are not official NWS values.
T = Trace of Precipitation, MM = Missing Value Source: Averaged Metar Reports

Daily Weather History Graph

Daily Weather History Graph

Search for Another Location

Airport:

Trip Planner

Search our weather history database for the weather conditions in past years. The results will help you decide how hot, cold, wet, or windy it might be!

Date:

Astronomy

Mar. 05, 2013 Rise Set
Actual Time 5:54 AM CST 5:52 PM CST
Civil Twilight 5:33 AM CST 6:13 PM CST
Nautical Twilight 5:09 AM CST 6:38 PM CST
Astronomical Twilight 4:44 AM CST 7:02 PM CST
Moon 12:21 AM CST (3/5) 12:16 PM CST (3/5)
Length of Visible Light 12h 40m
Length of Day
11h 58m
Last Quarter, 40% of the Moon is Illuminated
Mar 5
Last Quarter
Mar 11
New
Mar 19
First Quarter
Mar 27
Full
Apr 2
Last Quarter

Hourly Weather History & Observations

Time (CST) Temp. Heat Index Dew Point Humidity Pressure Visibility Wind Dir Wind Speed Gust Speed Precip Events Conditions
6:00 AM 73.4 °F - 62.6 °F 69% 29.87 in - West 5.8 mph - N/A   Clear
7:00 AM 77.0 °F - 62.6 °F 61% 29.87 in - WNW 3.5 mph - N/A   Clear
8:00 AM 82.4 °F 83.4 °F 62.6 °F 51% 29.88 in - West 4.6 mph - N/A   Clear
9:00 AM 87.8 °F 88.5 °F 62.6 °F 43% 29.88 in - ENE 13.8 mph - N/A   Clear
10:00 AM 89.6 °F 90.1 °F 62.6 °F 40% 29.88 in - East 15.0 mph - N/A   Clear
11:00 AM 89.6 °F 90.1 °F 62.6 °F 40% 29.87 in - ENE 18.4 mph - N/A   Clear
12:00 PM 87.8 °F 88.5 °F 62.6 °F 43% 29.85 in - East 20.7 mph - N/A   Clear
1:00 PM 89.6 °F 91.1 °F 64.4 °F 43% 29.83 in - East 18.4 mph - N/A   Clear
2:00 PM 89.6 °F 91.1 °F 64.4 °F 43% 29.81 in - ENE 13.8 mph - N/A   Clear
3:00 PM 89 °F - 65 °F 35% 29.81 in 12 mi ENE 16.1 mph - -   Scattered Clouds
3:00 PM 89.6 °F 91.1 °F 64.4 °F 43% 29.79 in 6.2 mi ENE 16.1 mph 27.6 mph N/A   Scattered Clouds
4:00 PM 87.8 °F 89.4 °F 64.4 °F 46% 29.79 in 6.2 mi ENE 19.6 mph - N/A   Mostly Cloudy
5:00 PM 86.0 °F 88.2 °F 66.2 °F 51% 29.80 in 6.2 mi ENE 19.6 mph - N/A   Mostly Cloudy
6:00 PM 82 °F - 66 °F 48% 29.83 in 12 mi ENE 16.1 mph - -   Scattered Clouds
6:00 PM 82.4 °F 84.6 °F 66.2 °F 58% 29.81 in 6.2 mi ENE 16.1 mph - N/A   Mostly Cloudy
7:00 PM 80.6 °F 82.7 °F 66.2 °F 61% 29.83 in 6.2 mi East 13.8 mph - N/A   Scattered Clouds
8:00 PM 78.8 °F - 66.2 °F 65% 29.86 in 6.2 mi ENE 12.7 mph - N/A   Mostly Cloudy
9:00 PM 78.8 °F - 66.2 °F 65% 29.90 in - NW 5.8 mph - N/A   Clear
10:00 PM 78.8 °F - 66.2 °F 65% 29.89 in - East 8.1 mph - N/A   Clear
11:00 PM 77.0 °F - 66.2 °F 69% 29.88 in - NE 6.9 mph - N/A   Clear